Regional Weather Roundup
Issued by NWS Cleveland, OH

Home | Current Version | Previous Version | Graphics & Text | Print | Product List | Glossary On
Versions: 1 2 3 4 5 6 7 8 9 10 11 12 13 14 15 16 17 18 19 20 21 22 23 24 25 26 27 28 29 30 31 32 33 34 35 36 37 38 39 40 41 42 43 44 45 46 47 48 49 50
000
ASUS41 KCLE 181910
RWRCLE
OHIO REGIONAL WEATHER ROUNDUP
NATIONAL WEATHER SERVICE WILMINGTON, OH
200 PM EST WED JAN 18 2017

NOTE: "FAIR" INDICATES FEW OR NO CLOUDS BELOW 12,000 FEET WITH NO
SIGNIFICANT WEATHER AND/OR OBSTRUCTIONS TO VISIBILITY.

OHZ001>008-015>018-024>027-034-035-043-044-182000-
   NORTHWEST OHIO

CITY           SKY/WX    TMP DP  RH WIND       PRES   REMARKS
DEFIANCE       CLOUDY    37  34  89 SW8       30.10F
FINDLAY        CLOUDY    39  34  82 W15       30.10F
TOLEDO EXPRESS CLOUDY    38  36  92 W15       30.08F
TOLEDO EXEC    CLOUDY    39  36  89 SW12      30.09F
LIMA           CLOUDY    37  35  92 SW12      30.12F
$$

OHZ009>014-019>023-028>033-038-089-182000-
   NORTHEAST OHIO

CITY           SKY/WX    TMP DP  RH WIND       PRES   REMARKS
CLE-HOPKINS    CLOUDY    39  35  86 W16       30.11S FOG
CLE-LAKEFRONT  CLOUDY    38  35  89 W12       30.08S
CUY CO. ARPT   CLOUDY    39  36  87 W14G23    30.08S FOG
LORAIN-ELYRIA  CLOUDY    38  34  85 W13       30.09F
ASHTABULA      CLOUDY    37  35  92 W13       30.06S FOG
AKRON-CANTON   CLOUDY    38  34  85 W10       30.08S FOG
WOOSTER        CLOUDY    38  34  85 W13       30.09F
MANSFIELD      CLOUDY    37  36  96 VRB6      30.08F
YOUNGSTOWN     DRIZZLE   37  35  92 W10       30.07R FOG
$$

OHZ042-051>053-060>062-070>072-077>081-182000-
  SOUTHWEST OHIO

CITY           SKY/WX    TMP DP  RH WIND       PRES   REMARKS
CINC-COVINGTON CLOUDY    41  36  82 W9        30.16F
CINC-LUNKEN    CLOUDY    42  36  79 W8        30.19F
HAMILTON       CLOUDY    40  37  89 W9        30.19F
DAYTON         CLOUDY    37  34  89 SW12      30.16S
WRIGHT-PAT AFB CLOUDY    38  36  89 W9        30.15F
DAYTON GENERAL CLOUDY    38  35  89 SW12      30.15F
WILMINGTON     CLOUDY    38  35  89 W15       30.15F
$$

OHZ036-037-039>041-045>050-054>059-063>069-073>076-082>088-182000-
  CENTRAL AND SOUTHEAST OHIO

CITY           SKY/WX    TMP DP  RH WIND       PRES   REMARKS
COLUMBUS       PTSUNNY   42  34  73 W8        30.13F
OSU AIRPORT    CLOUDY    40  35  83 SW13      30.14R
BOLTON FIELD   CLOUDY    39  36  87 W12       30.15F
RICKENBACK AFB   N/A     38  35  86 W10       30.15S
NEWARK         CLOUDY    41  35  79 W7        30.12F
MARION         CLOUDY    38  35  89 SW10      30.11F
LANCASTER      CLOUDY    41  35  79 W8        30.14F
ZANESVILLE     CLOUDY    41  34  76 W8        30.12F
NEW PHILLY     CLOUDY    40  35  83 W6        30.11F
$$




USA.gov is the U.S. government's official web portal to all federal, state and local government web resources and services.